Location: Aalsum
(53.3404°N, 6.0062°E)
Time: 09:10:32
(UTC+00:00)

Cosmos 1656 - Pass Details

Date: 28 January 2023
Orbit: 799 x 848 km, 71.1° (Epoch: 19 March)

Event Time Altitude Azimuth Distance (km) Brightness Sun altitude
Rises 17:15:31 0° 221° (SW) 3,331 7.9 -9.6°
Reaches altitude 10° 17:17:59 10° 225° (SW) 2,396 7.1 -10.0°
Maximum altitude 17:23:24 63° 306° (NW) 901 4.1 -10.8°
Drops below altitude 10° 17:28:49 10° 28° (NNE) 2,388 5.7 -11.5°
Enters shadow 17:29:59 - 30° (NNE) 2,832 6.0 -11.7°
